Regional Weather Roundup
Issued by NWS Bismarck, ND

Home | Current Version | Previous Version | Text Only | Print | Product List | Glossary On
Versions: 1 2 3 4 5 6 7 8 9 10 11 12 13 14 15 16 17 18 19 20 21 22 23 24 25 26 27 28 29 30 31 32 33 34 35 36 37 38 39 40 41 42 43 44 45 46 47 48 49 50
000
ASUS43 KBIS 271210
RWRBIS

NWR BROADCAST TEXT
NATIONAL WEATHER SERVICE BISMARCK ND
700 AM CDT FRI MAY 27 2016

NOTE: "FAIR" INDICATES FEW OR NO CLOUDS BELOW 12,000 FEET WITH NO
SIGNIFICANT WEATHER AND/OR OBSTRUCTIONS TO VISIBILITY.


CITY           SKY/WX    TMP DP  RH WIND       PRES   REMARKS
WILLISTON      CLOUDY    50  48  93 CALM      29.88S
MINOT          CLEAR     56  52  86 W6        29.82F
MINOT AFB      MOCLDY    52  52  98 NW5       29.81F
BISMARCK       FOG       50  50 100 N3        29.84S VSB 1/2
DICKINSON      CLOUDY    43  41  93 CALM      29.85S
GARRISON         N/A     50  49  96 NW6       29.83S
HETTINGER ARPT CLEAR     36  35  96 W6        29.86F
JAMESTOWN      SUNNY     53  51  93 N9        29.78S FOG
BEACH          FAIR      43  43 100 N3        29.89F
CARRINGTON     FOG       50  48  93 NW8       29.83R VSB<1/4
HAZEN          FAIR      45  45 100 CALM      29.87R FOG
LINTON         PTSUNNY   45  45 100 NW3         N/A
MANDAN         FOG       48  48 100 N9        29.84S VSB<1/4
OAKES            N/A    N/A N/A N/A MISG        N/A
RUGBY          FAIR      54  54 100 NW9       29.81S
STANLEY        CLOUDY    52  52 100 CALM      29.88S
WATFORD CITY   FAIR      41  41 100 CALM      29.87R FOG
$$

CITY           SKY/WX    TMP DP  RH WIND       PRES   REMARKS
GRAND FORKS    MOSUNNY   54  52  93 NW7       29.78S
GRAND FORKS AF SUNNY     52  52 100 CALM      29.79S
DEVILS LAKE    FOG       50  48  93 CALM      29.81S VSB<1/4
FARGO          PTSUNNY   59  54  83 CALM      29.77S
CAVALIER       FAIR      54  54 100 CALM      29.79S
GRAFTON        FAIR      54  54 100 CALM      29.82R
GWINNER        FAIR      57  54  88 CALM      29.77F
LANGDON        PTSUNNY   54  54 100 W6        29.80S
ROLLA          PTSUNNY   52  52 100 NW6       29.81F
WALHALLA       FAIR      54  54 100 CALM      29.80R
$$

CITY           SKY/WX    TMP DP  RH WIND       PRES   REMARKS
ABERDEEN       MOCLDY    55  52  89 CALM      29.76S
MOBRIDGE       PTCLDY    51  47  86 N5        29.78R
BUFFALO          N/A     47  43  86 S5        29.80F
RAPID CITY     CLOUDY    50  43  77 NW7       29.85S
GLASGOW        PTCLDY    47  46  97 E5        29.88F
SIDNEY         PTCLDY    47  45  93 NW5       29.88R FOG
WOLF POINT     PTCLDY    44  41  89 NW3       29.90S
GLENDIVE       PTCLDY    46  45  93 CALM      29.89S
MILES CITY     CLOUDY    51  48  89 W7        29.86R
BAKER          CLOUDY    42  40  92 CALM      29.88S
$$

CITY           SKY/WX    TMP DP  RH WIND       PRES   REMARKS
BILLINGS       PTCLDY    46  44  93 CALM      29.90F
GREAT FALLS    CLEAR     42  39  89 S8        29.87S
REGINA         CLOUDY    48  48 100 NW5       29.87R
ESTEVAN        CLOUDY    50  50 100 NW7       29.84S
$$




USA.gov is the U.S. government's official web portal to all federal, state and local government web resources and services.